[[{"header":{"parameterUnit":"m.s-1","parameterCategory":2,"la1":30.2991,"la2":30.254,"lo1":-89.0895,"lo2":-89.0444,"dy":0.0017,"dx":0.0017,"nx":28,"ny":28,"refTime":"2025-07-25T21:00:00:Z","depth":"0","parameterNumber":2,"parameterNumberName":"U-component_of_CURRENTS"},"data":[0,0,0,0,0,0,0,0,0,0,0,0,0,0,0,0,0,0,0,0,0,0,0,0,0,0,0,0,0,0,0,0,0,0,0,0,0,0,0,0,0,0,0,0,0,0,0,0,0,0,0,0,0,0,0,0,0,0,0.2324,0.2323,0,0.2233,0.2232,0.223,0.2159,0.2159,0.2159,0.2158,0.1979,0.1975,0.197,0,0,0,0,0,0,0,0,0,0,0,0,0,0.2427,0.2425,0.2324,0.2323,0.2322,0.2233,0.2232,0.223,0.216,0.2159,0.2159,0.2158,0.1981,0.1975,0.197,0,0,0,0,0,0,0,0,0,0,0,0,0,0.2361,0.2425,0.2324,0.2279,0.2274,0.2233,0.2232,0.223,0.216,0.2159,0.2158,0.2158,0.1982,0.1976,0.1969,0.1941,0,0,0.1949,0.1946,0,0,0,0,0,0,0,0,0.2365,0.2357,0.2286,0.2282,0.2276,0.221,0.2202,0.213,0.216,0.22,0.2158,0.2158,0.205,0.2038,0.2019,0.1932,0.1925,0.1949,0.1945,0.1942,0.194,0,0,0,0,0,0,0,0.2369,0.236,0.2285,0.2286,0.228,0.226,0.2249,0.2188,0.2126,0.2196,0.2192,0.2187,0.2047,0.2026,0.2014,0.1922,0.1949,0.1943,0.1939,0.1936,0.1915,0.1919,0,0,0,0,0,0,0.2388,0.2365,0.2288,0.2283,0.2323,0.2258,0.2247,0.2229,0.2128,0.2114,0.2187,0.2184,0.2038,0.2022,0.2008,0.2036,0.1942,0.1936,0.1932,0.1912,0.1916,0.192,0,0,0,0,0,0,0.239,0.2381,0.2292,0.2325,0.2312,0.2258,0.2238,0.2228,0.2214,0.2123,0.2106,0.2186,0.2036,0.2017,0.1988,0.2025,0.1933,0.1927,0.1908,0.1913,0.1918,0.2047,0,0,0,0,0,0,0.2393,0.2382,0.2381,0.2326,0.2311,0.2286,0.2239,0.2227,0.2213,0.2207,0.2116,0.2098,0.2034,0.1999,0.1982,0.2014,0.1922,0.1904,0.191,0.1916,0.2039,0.2056,0.2071,0,0,0,0,0,0.2397,0.2398,0.2381,0.2372,0.2309,0.2287,0.2279,0.2235,0.2214,0.2218,0.2172,0.2101,0.2029,0.1996,0.1975,0.2006,0.1901,0.1909,0.1916,0.2031,0.2053,0.207,0,0,0,0,0,0,0.2439,0.239,0.237,0.2354,0.2333,0.2277,0.2275,0.2248,0.2214,0.2206,0.2123,0.2103,0.2099,0.2045,0.2011,0.2029,0.1961,0.1965,0.2056,0.2075,0.2091,0.214,0.1916,0,0,0,0,0,0.245,0.2438,0.2395,0.2386,0.2378,0.233,0.2317,0.229,0.2252,0.2235,0.2178,0.2134,0.2115,0.2088,0.2053,0.2042,0.205,0.2061,0.2077,0.2091,0.2123,0.2193,0.2218,0.1945,0.1945,0.1945,0,0,0.2466,0.2437,0.243,0.2395,0.237,0.237,0.232,0.2308,0.232,0.222,0.2217,0.2179,0.2128,0.2132,0.2126,0.2086,0.2174,0.21,0.2112,0.2137,0.2204,0.223,0.2254,0.195,0.1949,0.1948,0,0,0.249,0.2465,0.2463,0.2454,0.2428,0.2406,0.2411,0.2368,0.2364,0.236,0.2311,0.2314,0.2248,0.2241,0.2225,0.2314,0.2262,0.2294,0.2399,0.2466,0.2489,0.251,0.2556,0.2579,0.2296,0.2296,0.2297,0,0.251,0.2496,0.2464,0.2466,0.2468,0.243,0.2442,0.244,0.2399,0.2411,0.2381,0.2367,0.2316,0.2352,0.2393,0.235,0.2372,0.2318,0.2488,0.2508,0.2527,0.2569,0.2593,0.2304,0.2303,0.2302,0.2301,0,0.2529,0.2529,0.2533,0.2523,0.2526,0.2532,0.2527,0.2538,0.2531,0.2527,0.2567,0.2529,0.2524,0.2518,0.2477,0.2583,0.2551,0.2502,0.2435,0.2562,0.2598,0.2621,0.2314,0.2311,0.2309,0.2307,0,0,0.2534,0.2544,0.2545,0.2557,0.2557,0.256,0.2604,0.263,0.2668,0.267,0.2731,0.2735,0.2724,0.2713,0.2671,0.2735,0.288,0.2686,0.2686,0.2727,0.3029,0.2888,0.2898,0.2859,0.2864,0.2868,0.3001,0,0.2555,0.2581,0.2581,0.2619,0.2632,0.2637,0.2683,0.2711,0.2735,0.2789,0.2811,0.284,0.2795,0.2798,0.2868,0.2866,0.2948,0.2849,0.2905,0.2907,0.2763,0.2923,0.2696,0.2786,0.3023,0.3027,0.3029,0,0.2557,0.258,0.2622,0.2667,0.2676,0.2702,0.2768,0.2804,0.2881,0.2905,0.2963,0.2965,0.3055,0.3001,0.3121,0.3058,0.308,0.3089,0.3092,0.2935,0.2809,0.2699,0.2818,0.2716,0.3064,0.3061,0.3058,0,0.2557,0.2601,0.2641,0.2656,0.2708,0.2741,0.2772,0.2838,0.2882,0.2982,0.3026,0.3118,0.3163,0.3231,0.3241,0.3199,0.3373,0.3299,0.3205,0.3194,0.3001,0.2964,0.3022,0.3435,0.3434,0.3434,0.3434,0,0.2563,0.2589,0.2648,0.267,0.2736,0.2759,0.2832,0.288,0.2957,0.3022,0.3085,0.3154,0.3231,0.331,0.332,0.3334,0.3437,0.3275,0.3241,0.3037,0.3003,0.2899,0.2873,0.3439,0.3438,0.3437,0.3436,0,0.2541,0.2577,0.2632,0.2709,0.2733,0.278,0.2854,0.2903,0.2975,0.3067,0.3103,0.3221,0.3308,0.3361,0.3466,0.3409,0.3316,0.342,0.3162,0.3095,0.2853,0.2842,0.2769,0.2705,0.3342,0.334,0.3338,0,0.2524,0.2552,0.266,0.27,0.2734,0.2799,0.2841,0.291,0.2955,0.3092,0.3137,0.3257,0.3314,0.3404,0.3329,0.3328,0.3255,0.312,0.2997,0.2857,0.2823,0.2701,0.2647,0.2803,0.2797,0.2792,0.2788,0,0.2506,0.2556,0.2619,0.2709,0.2764,0.2813,0.2871,0.2908,0.2989,0.3043,0.3132,0.319,0.3243,0.3122,0.3097,0.3064,0.2905,0.3011,0.2952,0.2498,0.229,0.2202,0.2695,0.2742,0.2747,0.275,0.2753,0.2754,0.2499,0.2552,0.2645,0.2718,0.2772,0.2801,0.2796,0.2844,0.2882,0.2896,0.3031,0.2996,0.2915,0.2821,0.2783,0.2512,0.2596,0.2374,0.2406,0.2321,0.2156,0.254,0.2481,0.2484,0.2486,0.2488,0.249,0,0.2494,0.2561,0.2635,0.2707,0.2719,0.2761,0.2787,0.2734,0.271,0.2725,0.2732,0.2556,0.2403,0.2317,0.2049,0.1914,0.1826,0.1863,0.1668,0.1676,0.2085,0.1954,0.1673,0.1673,0.1673,0.1673,0.1673,0.1673,0.2498,0.2572,0.2614,0.2631,0.2651,0.2589,0.2571,0.2496,0.2452,0.2275,0.2114,0.2092,0.1994,0.1753,0.1531,0.1491,0.1399,0.1247,0.1379,0.1671,0.1721,0.1769,0.164,0.1297,0.1297,0.0808,0.0804,0.0802]},{"header":{"parameterUnit":"m.s-1","parameterCategory":2,"la1":30.2991,"la2":30.254,"lo1":-89.0895,"lo2":-89.0444,"dy":0.0017,"dx":0.0017,"nx":28,"ny":28,"refTime":"2025-07-25T21:00:00:Z","depth":"0","parameterNumber":3,"parameterNumberName":"V-component_of_CURRENTS"},"data":[0,0,0,0,0,0,0,0,0,0,0,0,0,0,0,0,0,0,0,0,0,0,0,0,0,0,0,0,0,0,0,0,0,0,0,0,0,0,0,0,0,0,0,0,0,0,0,0,0,0,0,0,0,0,0,0,0,0,0.0285,0.0285,0,0.0265,0.0265,0.0264,0.026,0.026,0.0261,0.0261,0.0254,0.0253,0.0253,0,0,0,0,0,0,0,0,0,0,0,0,0,0.0276,0.0277,0.0285,0.0285,0.0284,0.0265,0.0265,0.0264,0.026,0.026,0.0261,0.0261,0.0254,0.0253,0.0253,0,0,0,0,0,0,0,0,0,0,0,0,0,0.0269,0.0277,0.0285,0.0281,0.0281,0.0265,0.0265,0.0264,0.026,0.026,0.0261,0.0261,0.0254,0.0254,0.0253,0.0241,0,0,0.0251,0.0251,0,0,0,0,0,0,0,0,0.027,0.027,0.0282,0.0281,0.0281,0.0267,0.0259,0.0257,0.026,0.0266,0.0261,0.0261,0.026,0.0259,0.0252,0.0241,0.024,0.0251,0.025,0.025,0.025,0,0,0,0,0,0,0,0.027,0.027,0.0276,0.0282,0.0281,0.0266,0.0265,0.0258,0.026,0.0266,0.0266,0.0266,0.026,0.0253,0.0252,0.024,0.0251,0.025,0.025,0.025,0.024,0.024,0,0,0,0,0,0,0.0277,0.0271,0.0276,0.0275,0.0278,0.0266,0.0265,0.027,0.026,0.0259,0.0265,0.0265,0.0254,0.0253,0.0252,0.0268,0.025,0.025,0.0249,0.024,0.024,0.024,0,0,0,0,0,0,0.0277,0.0278,0.0277,0.0273,0.0272,0.0266,0.027,0.0269,0.0267,0.026,0.0259,0.0266,0.0254,0.0253,0.0248,0.0267,0.0249,0.0249,0.024,0.024,0.024,0.0282,0,0,0,0,0,0,0.0277,0.0278,0.0281,0.0274,0.0273,0.0276,0.027,0.0268,0.0267,0.0267,0.026,0.0259,0.0254,0.0249,0.0247,0.0266,0.0248,0.024,0.024,0.024,0.028,0.0284,0.0286,0,0,0,0,0,0.0277,0.0283,0.0282,0.0282,0.0278,0.0277,0.0275,0.027,0.0266,0.0269,0.026,0.026,0.025,0.0248,0.0246,0.0265,0.024,0.024,0.024,0.0279,0.0283,0.0286,0,0,0,0,0,0,0.0278,0.0283,0.0281,0.0288,0.0286,0.0277,0.0276,0.0272,0.0265,0.0265,0.0256,0.0255,0.026,0.0251,0.0249,0.0262,0.0246,0.0246,0.0277,0.028,0.0283,0.0317,0.0248,0,0,0,0,0,0.028,0.0289,0.0287,0.0291,0.0291,0.0283,0.028,0.0278,0.0272,0.0269,0.0264,0.0258,0.0258,0.0259,0.0254,0.0257,0.0271,0.0268,0.0271,0.0274,0.0299,0.0339,0.0349,0.0241,0.0241,0.0241,0,0,0.0281,0.0285,0.0289,0.0292,0.0288,0.0297,0.0282,0.0282,0.0295,0.027,0.0279,0.0266,0.0259,0.0266,0.0268,0.0263,0.0305,0.0274,0.0277,0.0301,0.0341,0.0352,0.0362,0.0242,0.0242,0.0241,0,0,0.0293,0.0291,0.0305,0.0306,0.0306,0.0304,0.0307,0.0301,0.0304,0.0307,0.0295,0.0298,0.0288,0.0296,0.0297,0.0312,0.0317,0.0301,0.035,0.0387,0.0398,0.0407,0.0416,0.0426,0.0306,0.0306,0.0306,0,0.0294,0.0312,0.0307,0.032,0.0325,0.0312,0.0328,0.0329,0.0323,0.0335,0.0318,0.0328,0.0312,0.0344,0.0344,0.0324,0.0335,0.0338,0.0395,0.0404,0.0413,0.042,0.0431,0.0308,0.0308,0.0308,0.0307,0,0.0319,0.0331,0.0337,0.0355,0.0359,0.0367,0.0372,0.0379,0.0378,0.0385,0.0409,0.0392,0.0408,0.0393,0.0372,0.0422,0.0405,0.0393,0.0392,0.0427,0.0431,0.0441,0.0311,0.031,0.031,0.0309,0,0,0.0328,0.0352,0.0354,0.0367,0.0378,0.0384,0.0411,0.0436,0.0469,0.0464,0.0519,0.05,0.05,0.0502,0.0479,0.0502,0.055,0.0475,0.0476,0.0496,0.062,0.057,0.0576,0.055,0.0553,0.0555,0.059,0,0.0348,0.038,0.039,0.0419,0.0432,0.0438,0.0468,0.049,0.0511,0.0559,0.0564,0.0597,0.054,0.0554,0.0571,0.0572,0.0582,0.0541,0.0574,0.0575,0.0538,0.0589,0.0586,0.0615,0.06,0.0602,0.0603,0,0.0374,0.0389,0.0422,0.0455,0.0463,0.0482,0.0532,0.0559,0.0622,0.0643,0.0687,0.07,0.0745,0.0688,0.0721,0.0699,0.0663,0.0648,0.0649,0.0605,0.0546,0.0582,0.0634,0.0598,0.0619,0.0617,0.0616,0,0.0383,0.0415,0.0442,0.045,0.0485,0.0506,0.0529,0.0583,0.0628,0.071,0.0771,0.0812,0.0868,0.0846,0.081,0.0778,0.0843,0.0794,0.071,0.0704,0.0712,0.0703,0.075,0.081,0.081,0.081,0.0809,0,0.0403,0.0423,0.0445,0.0458,0.0496,0.0517,0.0579,0.0612,0.0696,0.0791,0.0818,0.0918,0.0915,0.095,0.0874,0.084,0.0895,0.0742,0.0727,0.072,0.0712,0.0686,0.0651,0.0811,0.0811,0.081,0.081,0,0.0411,0.0429,0.0455,0.0487,0.0502,0.0525,0.0599,0.0665,0.0731,0.0868,0.0909,0.1029,0.109,0.1048,0.1042,0.0941,0.0862,0.0844,0.082,0.0801,0.0667,0.0632,0.0676,0.0652,0.0773,0.0772,0.0771,0,0.0419,0.0433,0.0466,0.0494,0.0508,0.0552,0.0609,0.0672,0.0765,0.0946,0.1041,0.1145,0.1251,0.1212,0.1071,0.0946,0.0873,0.0819,0.0748,0.0685,0.0636,0.0625,0.0601,0.0765,0.0765,0.0764,0.0764,0,0.0426,0.0436,0.0458,0.0516,0.0567,0.0636,0.0726,0.0802,0.093,0.1059,0.126,0.1354,0.1342,0.1272,0.1082,0.0969,0.0797,0.08,0.0771,0.0672,0.0635,0.0595,0.0691,0.0759,0.076,0.076,0.076,0.076,0.0429,0.0446,0.0489,0.0546,0.0618,0.074,0.0816,0.0952,0.1112,0.1327,0.1405,0.155,0.1412,0.1184,0.1044,0.0766,0.0769,0.0665,0.0639,0.0641,0.0598,0.0662,0.0683,0.0683,0.0683,0.0683,0.0683,0,0.0437,0.0475,0.053,0.0616,0.0716,0.075,0.0921,0.1027,0.1238,0.1414,0.1571,0.156,0.1395,0.117,0.081,0.0644,0.059,0.0557,0.0563,0.0551,0.065,0.0627,0.0596,0.0596,0.0596,0.0596,0.0596,0.0596,0.0452,0.0499,0.0536,0.0691,0.0768,0.091,0.1015,0.1183,0.1329,0.1512,0.1574,0.1623,0.1467,0.0974,0.0661,0.0571,0.0491,0.0452,0.042,0.0496,0.0505,0.0514,0.0486,0.0426,0.0426,0.0349,0.0348,0.0347]}],[{"header":{"parameterUnit":"m.s-1","parameterCategory":2,"la1":30.2991,"la2":30.254,"lo1":-89.0895,"lo2":-89.0444,"dy":0.0017,"dx":0.0017,"nx":28,"ny":28,"refTime":"2025-07-25T21:00:00:Z","depth":"2","parameterNumber":2,"parameterNumberName":"U-component_of_CURRENTS"},"data":[0,0,0,0,0,0,0,0,0,0,0,0,0,0,0,0,0,0,0,0,0,0,0,0,0,0,0,0,0,0,0,0,0,0,0,0,0,0,0,0,0,0,0,0,0,0,0,0,0,0,0,0,0,0,0,0,0,0,0.1829,0.1829,0,0.1798,0.1797,0.1796,0.1792,0.1793,0.1793,0.1794,0.1729,0.1727,0.1725,0,0,0,0,0,0,0,0,0,0,0,0,0,0.1888,0.1887,0.1829,0.1829,0.1829,0.1798,0.1797,0.1796,0.1792,0.1793,0.1793,0.1794,0.173,0.1727,0.1724,0,0,0,0,0,0,0,0,0,0,0,0,0,0.1857,0.1887,0.1829,0.1826,0.1825,0.1798,0.1797,0.1796,0.1792,0.1793,0.1794,0.1794,0.1731,0.1727,0.1724,0.1684,0,0,0.1713,0.1712,0,0,0,0,0,0,0,0,0.1859,0.1854,0.1826,0.1826,0.1825,0.1803,0.1794,0.1758,0.1792,0.1801,0.1794,0.1795,0.1752,0.1747,0.1735,0.1681,0.1678,0.1713,0.1711,0.171,0.1709,0,0,0,0,0,0,0,0.1861,0.1856,0.1813,0.1826,0.1826,0.1827,0.1823,0.1787,0.1768,0.18,0.1801,0.1802,0.1751,0.1738,0.1733,0.1677,0.1713,0.171,0.1708,0.1707,0.1721,0.1724,0,0,0,0,0,0,0.187,0.1858,0.1814,0.1813,0.1849,0.1825,0.1821,0.1806,0.1769,0.1766,0.1802,0.1802,0.1743,0.1737,0.1731,0.1773,0.171,0.1706,0.1704,0.1719,0.1722,0.1725,0,0,0,0,0,0,0.1871,0.1866,0.1816,0.1838,0.1833,0.1824,0.1807,0.1805,0.1813,0.1772,0.1767,0.1814,0.1744,0.1736,0.1741,0.1767,0.1705,0.1702,0.1716,0.172,0.1723,0.1799,0,0,0,0,0,0,0.1873,0.1866,0.1877,0.1838,0.1832,0.1821,0.1807,0.1804,0.1813,0.1814,0.178,0.1774,0.1744,0.1746,0.1737,0.1761,0.1699,0.1713,0.1718,0.1722,0.1793,0.1805,0.1815,0,0,0,0,0,0.1875,0.1886,0.1877,0.1873,0.1839,0.1822,0.1819,0.1813,0.1813,0.1822,0.1815,0.1776,0.177,0.1745,0.1734,0.1758,0.1711,0.1716,0.1722,0.1789,0.1803,0.1814,0,0,0,0,0,0,0.1915,0.1886,0.1875,0.1876,0.186,0.1823,0.1835,0.1825,0.1823,0.1834,0.1792,0.1786,0.1804,0.1777,0.175,0.1783,0.1739,0.1743,0.1794,0.1807,0.1817,0.1879,0.1696,0,0,0,0,0,0.1928,0.1925,0.1896,0.1895,0.1892,0.1865,0.1864,0.1859,0.1845,0.1846,0.1823,0.1815,0.1813,0.1808,0.1797,0.1799,0.1821,0.1816,0.1826,0.1835,0.1883,0.1935,0.1955,0.1743,0.1743,0.1743,0,0,0.194,0.1925,0.1924,0.1904,0.1888,0.1891,0.1866,0.1871,0.1885,0.1837,0.1856,0.1844,0.1825,0.1842,0.1847,0.1822,0.1908,0.1842,0.185,0.1894,0.1943,0.1964,0.1982,0.1747,0.1746,0.1745,0,0,0.1956,0.1951,0.1953,0.1951,0.1944,0.1929,0.1936,0.1915,0.1925,0.1939,0.192,0.1943,0.1916,0.1922,0.1919,0.1983,0.1963,0.197,0.2065,0.2113,0.2132,0.2148,0.2201,0.2222,0.1972,0.1972,0.1973,0,0.1981,0.1964,0.1954,0.1962,0.197,0.1949,0.1962,0.1966,0.1955,0.1974,0.1966,0.1991,0.1967,0.2007,0.2045,0.2007,0.2037,0.2007,0.2128,0.2144,0.2159,0.221,0.2232,0.1977,0.1976,0.1976,0.1975,0,0.1988,0.1992,0.1996,0.1995,0.2011,0.2015,0.2023,0.2054,0.2064,0.2059,0.2114,0.2107,0.2127,0.2122,0.2108,0.2199,0.2186,0.2132,0.2092,0.2185,0.2233,0.2254,0.1983,0.1981,0.198,0.1979,0,0,0.1998,0.1998,0.2005,0.2017,0.2031,0.2044,0.2096,0.2123,0.2158,0.2186,0.2241,0.2274,0.2275,0.228,0.2258,0.2321,0.2446,0.2292,0.2293,0.2344,0.2576,0.2417,0.2424,0.241,0.2414,0.2418,0.2565,0,0.2002,0.2023,0.2027,0.2063,0.2073,0.2107,0.2144,0.2187,0.2216,0.2263,0.2307,0.2351,0.2325,0.236,0.2411,0.2437,0.2508,0.2414,0.2483,0.2487,0.2331,0.2445,0.22,0.2298,0.2585,0.2589,0.2591,0,0.2006,0.2019,0.2049,0.2093,0.2104,0.2134,0.222,0.225,0.2319,0.2353,0.2422,0.2446,0.2558,0.2519,0.2646,0.2588,0.2615,0.2639,0.2642,0.2492,0.2367,0.2253,0.2325,0.2626,0.2623,0.262,0.2618,0,0.2011,0.2043,0.2068,0.2084,0.2126,0.2178,0.2213,0.228,0.2329,0.2434,0.2508,0.258,0.2666,0.2724,0.2768,0.2734,0.2895,0.2826,0.2718,0.2706,0.2514,0.2477,0.2947,0.2947,0.2946,0.2946,0.2946,0,0.2006,0.2031,0.2077,0.2093,0.2152,0.2188,0.2256,0.2316,0.2398,0.2469,0.2554,0.2649,0.2736,0.2818,0.2828,0.2834,0.2935,0.2786,0.2747,0.253,0.2495,0.2783,0.2762,0.2951,0.295,0.2949,0.2948,0,0.1987,0.2014,0.2057,0.2122,0.2149,0.2203,0.2297,0.2339,0.2436,0.2555,0.2626,0.2758,0.2855,0.2895,0.2989,0.2911,0.2929,0.2902,0.2642,0.2569,0.2704,0.2686,0.2829,0.2825,0.2821,0.2818,0.2816,0,0.1964,0.1987,0.2075,0.212,0.2149,0.2224,0.2263,0.2355,0.2412,0.2613,0.2675,0.2833,0.2843,0.2887,0.2818,0.2787,0.2883,0.2561,0.2441,0.2752,0.27,0.2687,0.2674,0.2235,0.2228,0.2222,0.2218,0,0.1961,0.2006,0.2046,0.2104,0.2173,0.2232,0.2309,0.2358,0.2479,0.2573,0.267,0.2697,0.2718,0.2537,0.2495,0.2453,0.2532,0.2439,0.2869,0.2267,0.2193,0.2141,0.2148,0.2167,0.2172,0.2175,0.2178,0.218,0.197,0.1998,0.2057,0.2108,0.2185,0.2232,0.2235,0.2291,0.2355,0.2396,0.2498,0.2404,0.2372,0.2128,0.2056,0.2031,0.2212,0.2115,0.2133,0.2158,0.2028,0.1947,0.1853,0.1856,0.1859,0.1861,0.1863,0,0.1967,0.2005,0.2055,0.2126,0.2172,0.2243,0.2252,0.2188,0.2182,0.2165,0.212,0.1845,0.1683,0.1697,0.155,0.1525,0.1525,0.1485,0.1472,0.1523,0.1569,0.1409,0.1071,0.1068,0.1066,0.1064,0,0,0.1969,0.2004,0.2014,0.2096,0.2169,0.2176,0.2164,0.2015,0.1907,0.1705,0.1577,0.1541,0.1599,0.1293,0.1253,0.1144,0.133,0.1095,0.1729,0.1764,0.1807,0.1927,0.1736,0,0,0,0,0]},{"header":{"parameterUnit":"m.s-1","parameterCategory":2,"la1":30.2991,"la2":30.254,"lo1":-89.0895,"lo2":-89.0444,"dy":0.0017,"dx":0.0017,"nx":28,"ny":28,"refTime":"2025-07-25T21:00:00:Z","depth":"2","parameterNumber":3,"parameterNumberName":"V-component_of_CURRENTS"},"data":[0,0,0,0,0,0,0,0,0,0,0,0,0,0,0,0,0,0,0,0,0,0,0,0,0,0,0,0,0,0,0,0,0,0,0,0,0,0,0,0,0,0,0,0,0,0,0,0,0,0,0,0,0,0,0,0,0,0,0.0039,0.0039,0,0.0035,0.0035,0.0035,0.0047,0.0047,0.0048,0.0048,0.0075,0.0075,0.0075,0,0,0,0,0,0,0,0,0,0,0,0,0,0.0023,0.0024,0.0039,0.0039,0.0039,0.0035,0.0035,0.0035,0.0047,0.0047,0.0048,0.0048,0.0075,0.0075,0.0075,0,0,0,0,0,0,0,0,0,0,0,0,0,0.0025,0.0024,0.0039,0.0046,0.0046,0.0035,0.0035,0.0035,0.0047,0.0047,0.0048,0.0049,0.0075,0.0075,0.0075,0.0064,0,0,0.0077,0.0077,0,0,0,0,0,0,0,0,0.0025,0.0025,0.0045,0.0045,0.0046,0.0043,0.0039,0.0046,0.0046,0.0046,0.0048,0.0049,0.0067,0.0068,0.0064,0.0065,0.0066,0.0077,0.0077,0.0077,0.0077,0,0,0,0,0,0,0,0.0025,0.0025,0.0037,0.0045,0.0045,0.0037,0.0038,0.004,0.0052,0.0046,0.0047,0.0047,0.0068,0.0064,0.0065,0.0067,0.0077,0.0077,0.0077,0.0077,0.0078,0.0078,0,0,0,0,0,0,0.0028,0.0025,0.0037,0.0037,0.0038,0.0037,0.0038,0.0042,0.0052,0.0054,0.0047,0.0048,0.0062,0.0064,0.0066,0.0079,0.0077,0.0077,0.0078,0.0079,0.0078,0.0078,0,0,0,0,0,0,0.0028,0.0029,0.0037,0.0031,0.0032,0.0036,0.0041,0.0042,0.0044,0.0052,0.0055,0.0049,0.0063,0.0065,0.007,0.0079,0.0078,0.0078,0.0079,0.0078,0.0078,0.0088,0,0,0,0,0,0,0.0027,0.0029,0.0032,0.0032,0.0032,0.0035,0.0041,0.0041,0.0043,0.0045,0.0055,0.0057,0.0064,0.0069,0.007,0.008,0.0078,0.0079,0.0079,0.0078,0.0088,0.0088,0.0088,0,0,0,0,0,0.0027,0.0032,0.0032,0.0033,0.0036,0.0035,0.0034,0.0039,0.0043,0.0043,0.0048,0.0057,0.0067,0.0069,0.007,0.008,0.0079,0.0079,0.0078,0.0088,0.0088,0.0088,0,0,0,0,0,0,0.0023,0.0033,0.0034,0.004,0.0038,0.0038,0.0039,0.0039,0.0041,0.0046,0.0053,0.0055,0.0064,0.0065,0.0066,0.0077,0.0076,0.0075,0.0082,0.0082,0.0083,0.011,0.0079,0,0,0,0,0,0.0023,0.0032,0.0033,0.0037,0.0038,0.0037,0.0036,0.004,0.0042,0.0044,0.0048,0.0054,0.006,0.0066,0.0069,0.0073,0.0088,0.008,0.008,0.008,0.0102,0.0126,0.0131,0.0076,0.0076,0.0076,0,0,0.0021,0.0028,0.0032,0.0037,0.0037,0.0041,0.0038,0.0042,0.0048,0.0046,0.0055,0.0054,0.006,0.0067,0.0071,0.0072,0.0098,0.008,0.008,0.0102,0.0126,0.0131,0.0136,0.0076,0.0076,0.0076,0,0,0.0026,0.0029,0.004,0.0041,0.0045,0.0044,0.0046,0.0046,0.0051,0.0053,0.0056,0.0063,0.0064,0.0075,0.0081,0.0082,0.0097,0.0077,0.0104,0.0126,0.0131,0.0136,0.0145,0.0151,0.0079,0.0079,0.0079,0,0.0024,0.0037,0.0039,0.0049,0.0055,0.0047,0.0058,0.0057,0.0058,0.0068,0.006,0.008,0.0074,0.0102,0.0098,0.0086,0.0096,0.0104,0.0128,0.0133,0.0138,0.0146,0.0153,0.0079,0.0079,0.0079,0.0079,0,0.0038,0.0046,0.0051,0.0064,0.007,0.0075,0.0079,0.0079,0.0081,0.0087,0.011,0.0107,0.0126,0.0115,0.0107,0.0139,0.0132,0.0124,0.0133,0.0145,0.0152,0.0158,0.008,0.008,0.0079,0.0079,0,0,0.0044,0.0059,0.0061,0.0068,0.0081,0.0084,0.0098,0.0111,0.0127,0.0131,0.0168,0.0163,0.0172,0.0179,0.0172,0.0185,0.0208,0.017,0.0171,0.0188,0.0253,0.0212,0.0215,0.0206,0.0208,0.0209,0.0237,0,0.0055,0.0071,0.0083,0.0097,0.0105,0.011,0.0124,0.0137,0.0149,0.0179,0.0196,0.023,0.0194,0.0215,0.0219,0.0233,0.0229,0.0201,0.0232,0.0233,0.0203,0.0223,0.0232,0.0256,0.0244,0.0245,0.0246,0,0.0074,0.0079,0.0098,0.0114,0.012,0.0127,0.0154,0.0167,0.0206,0.0222,0.0263,0.0292,0.0338,0.0296,0.0327,0.0314,0.028,0.0272,0.0272,0.0244,0.0205,0.0244,0.0268,0.0256,0.0256,0.0255,0.0254,0,0.008,0.0095,0.0108,0.0113,0.0128,0.0139,0.0148,0.0179,0.0203,0.027,0.0323,0.0364,0.0427,0.0404,0.0395,0.037,0.0419,0.038,0.0304,0.03,0.0321,0.0316,0.0374,0.0374,0.0374,0.0374,0.0373,0,0.0093,0.0102,0.0105,0.0109,0.0115,0.014,0.0161,0.0177,0.0237,0.0315,0.0353,0.0454,0.0462,0.0501,0.0438,0.041,0.0453,0.0324,0.0313,0.0319,0.0315,0.0327,0.0322,0.0375,0.0374,0.0374,0.0374,0,0.0097,0.0106,0.0107,0.0114,0.0115,0.0117,0.0151,0.0185,0.0247,0.0363,0.041,0.0541,0.0619,0.0586,0.0583,0.0491,0.0446,0.0403,0.0404,0.0391,0.0295,0.0289,0.0337,0.0336,0.0336,0.0335,0.0334,0,0.0103,0.0106,0.0091,0.0096,0.0096,0.0104,0.0128,0.017,0.0239,0.0441,0.0528,0.0655,0.0766,0.0731,0.0612,0.0496,0.0461,0.039,0.0328,0.0312,0.0296,0.0291,0.0287,0.0356,0.0355,0.0355,0.0355,0,0.0103,0.0092,0.0085,0.0088,0.0102,0.0128,0.0185,0.0247,0.0376,0.0523,0.0765,0.0878,0.0861,0.0806,0.0615,0.052,0.0411,0.0376,0.0402,0.0348,0.0327,0.0311,0.0307,0.0352,0.0352,0.0353,0.0353,0.0353,0.0096,0.0078,0.0077,0.0085,0.0119,0.0212,0.0291,0.0412,0.0583,0.0843,0.0908,0.1056,0.0939,0.0721,0.057,0.0387,0.0395,0.0308,0.031,0.0313,0.0295,0.0272,0.0283,0.0283,0.0283,0.0282,0.0282,0,0.0083,0.008,0.0091,0.0131,0.0212,0.0238,0.0385,0.0521,0.0799,0.0924,0.111,0.0996,0.0904,0.0735,0.047,0.0306,0.0293,0.0244,0.0272,0.0277,0.028,0.0261,0.024,0.0239,0.0239,0.0238,0,0,0.0082,0.0078,0.0088,0.0219,0.03,0.0465,0.0595,0.0804,0.092,0.109,0.1127,0.1133,0.0938,0.0726,0.0534,0.0391,0.0358,0.0348,0.0401,0.0463,0.0468,0.034,0.0317,0,0,0,0,0]}],[{"header":{"parameterUnit":"m.s-1","parameterCategory":2,"la1":30.2991,"la2":30.254,"lo1":-89.0895,"lo2":-89.0444,"dy":0.0017,"dx":0.0017,"nx":28,"ny":28,"refTime":"2025-07-25T21:00:00:Z","depth":"4","parameterNumber":2,"parameterNumberName":"U-component_of_CURRENTS"},"data":[0,0,0,0,0,0,0,0,0,0,0,0,0,0,0,0,0,0,0,0,0,0,0,0,0,0,0,0,0,0,0,0,0,0,0,0,0,0,0,0,0,0,0,0,0,0,0,0,0,0,0,0,0,0,0,0,0,0,0.0859,0.0859,0,0.088,0.088,0.088,0.0905,0.0906,0.0907,0.0907,0.099,0.0992,0.0994,0,0,0,0,0,0,0,0,0,0,0,0,0,0.0848,0.0848,0.0859,0.0859,0.086,0.088,0.088,0.088,0.0905,0.0906,0.0907,0.0908,0.099,0.0992,0.0994,0,0,0,0,0,0,0,0,0,0,0,0,0,0.0856,0.0848,0.0859,0.0877,0.088,0.088,0.088,0.088,0.0905,0.0906,0.0907,0.0908,0.0989,0.0992,0.0994,0.0987,0,0,0.1001,0.1002,0,0,0,0,0,0,0,0,0.0856,0.0856,0.0874,0.0876,0.0879,0.0894,0.0907,0.092,0.0905,0.0892,0.0907,0.0909,0.0965,0.097,0.0966,0.0991,0.0995,0.1001,0.1003,0.1004,0.1004,0,0,0,0,0,0,0,0.0855,0.0855,0.0864,0.0875,0.0877,0.0888,0.089,0.0909,0.0921,0.0893,0.0896,0.0903,0.0967,0.0963,0.0968,0.0996,0.1001,0.1003,0.1005,0.1006,0.109,0.1091,0,0,0,0,0,0,0.0857,0.0855,0.0863,0.0865,0.0873,0.0887,0.0889,0.0885,0.092,0.0926,0.0902,0.0904,0.0959,0.0965,0.0971,0.104,0.1004,0.1006,0.1007,0.1089,0.109,0.1091,0,0,0,0,0,0,0.0857,0.0857,0.0862,0.0864,0.0865,0.0887,0.0882,0.0885,0.0908,0.0926,0.0934,0.0925,0.096,0.0968,0.1006,0.1041,0.1007,0.1009,0.1088,0.1089,0.1091,0.1131,0,0,0,0,0,0,0.0856,0.0857,0.0863,0.0863,0.0866,0.0876,0.0881,0.0885,0.0911,0.0914,0.0948,0.0955,0.0961,0.1003,0.1009,0.1044,0.1011,0.1087,0.1089,0.109,0.1128,0.1133,0.1137,0,0,0,0,0,0.0855,0.0855,0.0863,0.0865,0.087,0.0877,0.0879,0.0895,0.0911,0.092,0.0945,0.0955,0.1017,0.1005,0.1012,0.1048,0.1086,0.1088,0.109,0.1126,0.1132,0.1137,0,0,0,0,0,0,0.0854,0.0858,0.0866,0.0868,0.088,0.0883,0.0899,0.0908,0.0932,0.0947,0.0963,0.0972,0.1017,0.1023,0.101,0.1076,0.1055,0.1058,0.108,0.1086,0.109,0.1067,0.1013,0,0,0,0,0,0.0856,0.086,0.0866,0.0873,0.0882,0.0896,0.0906,0.0916,0.0934,0.0947,0.097,0.0998,0.1024,0.1048,0.1065,0.1103,0.1114,0.1131,0.1135,0.1139,0.1125,0.1206,0.1217,0.1097,0.1097,0.1097,0,0,0.0856,0.0863,0.0865,0.0874,0.0889,0.0893,0.0904,0.0927,0.0934,0.0953,0.0985,0.1014,0.1035,0.1074,0.1096,0.1091,0.1173,0.1142,0.1145,0.1128,0.1209,0.1221,0.1231,0.1099,0.1098,0.1098,0,0,0.0853,0.0869,0.087,0.0883,0.0909,0.0912,0.0924,0.0942,0.0959,0.0987,0.1006,0.1055,0.1089,0.1115,0.113,0.117,0.119,0.1186,0.1201,0.1281,0.1292,0.1301,0.1305,0.1315,0.1195,0.1196,0.1196,0,0.0857,0.0851,0.0873,0.0882,0.0889,0.0922,0.092,0.0941,0.0969,0.0991,0.1004,0.1075,0.1104,0.1152,0.1168,0.1182,0.1207,0.1182,0.1288,0.1298,0.1308,0.131,0.132,0.1198,0.1197,0.1197,0.1197,0,0.0847,0.0852,0.0861,0.0874,0.0886,0.0896,0.0921,0.095,0.0981,0.1006,0.1067,0.1106,0.1152,0.1178,0.1186,0.1266,0.1253,0.1283,0.1277,0.1322,0.1321,0.1331,0.1201,0.12,0.1199,0.1199,0,0,0.0827,0.0843,0.085,0.0844,0.0881,0.088,0.0915,0.0943,0.0973,0.1028,0.1069,0.1131,0.1176,0.1194,0.1229,0.1296,0.1383,0.132,0.1324,0.1325,0.1517,0.1399,0.1398,0.1452,0.1455,0.1457,0.1481,0,0.0811,0.0793,0.082,0.0816,0.0802,0.0853,0.0878,0.0922,0.097,0.1026,0.1099,0.1158,0.1177,0.1221,0.1291,0.137,0.1415,0.137,0.147,0.1471,0.1364,0.1409,0.1465,0.1488,0.1491,0.1492,0.1494,0,0.0793,0.0774,0.0747,0.0763,0.0769,0.0785,0.0828,0.0864,0.0965,0.101,0.1094,0.1158,0.126,0.1277,0.1418,0.1397,0.1449,0.1497,0.1501,0.138,0.1373,0.144,0.1512,0.151,0.1509,0.1508,0.1507,0,0.0726,0.0734,0.0698,0.0702,0.0724,0.0744,0.0783,0.0865,0.0901,0.1023,0.1076,0.119,0.1275,0.137,0.1477,0.147,0.1619,0.1626,0.1545,0.1535,0.1616,0.1606,0.1709,0.1709,0.1709,0.1709,0.1709,0,0.0682,0.0666,0.0668,0.0643,0.0626,0.0694,0.072,0.0779,0.0886,0.0948,0.1077,0.1141,0.1318,0.1425,0.149,0.1542,0.1638,0.1534,0.1546,0.1626,0.1617,0.1621,0.1611,0.171,0.171,0.171,0.171,0,0.0616,0.0621,0.0568,0.0573,0.0585,0.0579,0.0663,0.0703,0.0822,0.091,0.0962,0.114,0.1287,0.141,0.1573,0.1553,0.1619,0.1609,0.1644,0.166,0.1461,0.1452,0.1497,0.1493,0.149,0.1487,0.1485,0,0.058,0.0539,0.0487,0.0465,0.0471,0.0491,0.0527,0.0644,0.0695,0.0896,0.0935,0.1122,0.1233,0.1357,0.1485,0.1569,0.1569,0.1557,0.1525,0.1438,0.1446,0.1442,0.1438,0.148,0.1479,0.1479,0.1478,0,0.0484,0.0459,0.0392,0.0349,0.0356,0.0371,0.0439,0.0458,0.0632,0.074,0.0903,0.102,0.117,0.1302,0.1384,0.1443,0.1544,0.1524,0.153,0.15,0.1419,0.1429,0.1428,0.1467,0.1468,0.1469,0.147,0,0.0395,0.0312,0.0239,0.0214,0.0234,0.0273,0.0308,0.0412,0.0485,0.0721,0.0769,0.0994,0.1157,0.1235,0.1312,0.1361,0.134,0.1292,0.131,0.1323,0.126,0.1131,0.1097,0,0,0,0,0,0.0296,0.0195,0.014,0.009,0.0145,0.0181,0.027,0.0332,0.0486,0.0575,0.0676,0.0822,0.0984,0.1087,0.1108,0.1202,0.1316,0.1215,0.1261,0.1407,0.1419,0.1365,0,0,0,0,0,0,0.0205,0.0105,0.0075,0.0054,0.0048,0.0102,0.0169,0.0273,0.0327,0.0499,0.0599,0.0736,0.0906,0.0973,0.1086,0.1112,0.1114,0.1336,0.1333,0.14,0.1411,0.1421,0.137,0,0,0,0,0]},{"header":{"parameterUnit":"m.s-1","parameterCategory":2,"la1":30.2991,"la2":30.254,"lo1":-89.0895,"lo2":-89.0444,"dy":0.0017,"dx":0.0017,"nx":28,"ny":28,"refTime":"2025-07-25T21:00:00:Z","depth":"4","parameterNumber":3,"parameterNumberName":"V-component_of_CURRENTS"},"data":[0,0,0,0,0,0,0,0,0,0,0,0,0,0,0,0,0,0,0,0,0,0,0,0,0,0,0,0,0,0,0,0,0,0,0,0,0,0,0,0,0,0,0,0,0,0,0,0,0,0,0,0,0,0,0,0,0,0,0.0024,0.0024,0,0.0015,0.0015,0.0015,0.002,0.002,0.0021,0.0021,0.004,0.004,0.004,0,0,0,0,0,0,0,0,0,0,0,0,0,0.0015,0.0016,0.0024,0.0024,0.0024,0.0015,0.0015,0.0015,0.002,0.002,0.0021,0.0021,0.004,0.004,0.004,0,0,0,0,0,0,0,0,0,0,0,0,0,0.0014,0.0016,0.0024,0.0025,0.0026,0.0016,0.0015,0.0015,0.002,0.002,0.0021,0.0021,0.004,0.004,0.004,0.0035,0,0,0.0041,0.0042,0,0,0,0,0,0,0,0,0.0014,0.0014,0.0025,0.0025,0.0025,0.002,0.0019,0.0023,0.002,0.0022,0.0021,0.0021,0.0035,0.0036,0.0033,0.0035,0.0036,0.0041,0.0042,0.0042,0.0042,0,0,0,0,0,0,0,0.0014,0.0015,0.002,0.0025,0.0025,0.0017,0.0017,0.002,0.0027,0.0022,0.0022,0.0022,0.0036,0.0032,0.0033,0.0036,0.0041,0.0042,0.0042,0.0042,0.0048,0.0048,0,0,0,0,0,0,0.0017,0.0015,0.002,0.002,0.0021,0.0017,0.0017,0.0021,0.0026,0.0027,0.0021,0.0022,0.0032,0.0033,0.0034,0.0042,0.0042,0.0042,0.0042,0.0048,0.0048,0.0048,0,0,0,0,0,0,0.0017,0.0018,0.0021,0.0017,0.0017,0.0017,0.002,0.002,0.0019,0.0025,0.0027,0.002,0.0032,0.0034,0.0037,0.0042,0.0042,0.0043,0.0048,0.0048,0.0048,0.0048,0,0,0,0,0,0,0.0017,0.0018,0.0018,0.0018,0.0017,0.0019,0.002,0.002,0.0018,0.0018,0.0025,0.0027,0.0032,0.0037,0.0038,0.0043,0.0043,0.0048,0.0048,0.0048,0.0048,0.0048,0.0048,0,0,0,0,0,0.0017,0.0019,0.0019,0.0019,0.0019,0.0019,0.0018,0.0018,0.0017,0.0018,0.002,0.0027,0.0037,0.0037,0.0038,0.0043,0.0049,0.0048,0.0048,0.0048,0.0048,0.0048,0,0,0,0,0,0,0.0012,0.0019,0.0019,0.0022,0.0022,0.002,0.0018,0.0017,0.0017,0.0018,0.0024,0.0026,0.0032,0.0035,0.0035,0.0044,0.0044,0.0045,0.0044,0.0044,0.0044,0.0051,0.0043,0,0,0,0,0,0.0012,0.0018,0.0019,0.0021,0.0021,0.0018,0.0016,0.0017,0.0018,0.0018,0.0021,0.0026,0.0031,0.0035,0.004,0.0043,0.004,0.0047,0.0047,0.0047,0.0053,0.0053,0.0053,0.0048,0.0048,0.0048,0,0,0.001,0.0014,0.0017,0.002,0.0019,0.0025,0.0018,0.0017,0.0024,0.002,0.0028,0.0025,0.0031,0.0037,0.004,0.0041,0.0043,0.0046,0.0046,0.0053,0.0053,0.0053,0.0054,0.0048,0.0048,0.0048,0,0,0.0014,0.0014,0.0022,0.0022,0.0023,0.0025,0.0026,0.0024,0.0025,0.0027,0.0029,0.0027,0.0033,0.0039,0.0043,0.0044,0.0041,0.0044,0.005,0.005,0.005,0.0051,0.0031,0.003,0.0044,0.0044,0.0044,0,0.0012,0.0026,0.0022,0.0029,0.0037,0.0028,0.0042,0.0038,0.0038,0.0043,0.0033,0.0037,0.0037,0.005,0.0047,0.0045,0.0037,0.0051,0.005,0.0051,0.0051,0.0031,0.003,0.0044,0.0044,0.0044,0.0044,0,0.0023,0.0034,0.0037,0.0051,0.0057,0.0064,0.0065,0.0065,0.0063,0.0063,0.0066,0.0054,0.0061,0.0055,0.005,0.0056,0.0044,0.0049,0.0051,0.0052,0.003,0.0029,0.0044,0.0044,0.0044,0.0044,0,0,0.0028,0.0045,0.0047,0.0071,0.0072,0.009,0.0091,0.0105,0.0122,0.0099,0.0114,0.01,0.0087,0.009,0.0079,0.007,0.0054,0.0058,0.0058,0.0039,0.0037,0.0037,0.0036,0.0058,0.0058,0.0058,0.0014,0,0.0043,0.0074,0.0075,0.0115,0.0138,0.0133,0.0147,0.0154,0.0151,0.0158,0.0131,0.014,0.0104,0.0106,0.0088,0.0072,0.0053,0.0065,0.0039,0.0038,0.004,0.0036,0.0059,0.0013,0.0013,0.0012,0.0012,0,0.0057,0.0085,0.0124,0.0174,0.0184,0.0205,0.0241,0.0249,0.0243,0.0237,0.0219,0.0195,0.0172,0.0144,0.0098,0.0105,0.007,0.0046,0.0044,0.0048,0.0037,0.0016,0.001,0.001,0.001,0.001,0.001,0,0.0086,0.0126,0.0169,0.0181,0.0221,0.0247,0.0272,0.0278,0.0304,0.0288,0.0294,0.0252,0.0243,0.0189,0.012,0.0112,0.0068,0.0056,0.0017,0.0016,0.0028,0.0029,0.0025,0.0025,0.0025,0.0025,0.0025,0,0.0109,0.0146,0.0193,0.022,0.0291,0.0298,0.0366,0.0367,0.038,0.0408,0.0343,0.0341,0.0256,0.021,0.0139,0.0073,0.0082,0.0018,0.001,0.0026,0.0027,0.0026,0.0027,0.0023,0.0024,0.0024,0.0024,0,0.0128,0.0148,0.0217,0.0281,0.0308,0.0364,0.0444,0.0485,0.0474,0.0502,0.0495,0.0425,0.0355,0.0264,0.018,0.0114,0.0044,0.0019,0.0032,0.0026,-0.0019,-0.0018,-0.0033,-0.0033,-0.0033,-0.0034,-0.0034,0,0.0139,0.0171,0.0273,0.0327,0.0362,0.0447,0.0503,0.0534,0.0562,0.0547,0.0549,0.0489,0.0429,0.0305,0.0204,0.0071,0.005,0.0003,-0.0008,-0.0016,-0.0022,-0.002,-0.0019,-0.0034,-0.0034,-0.0034,-0.0034,0,0.0173,0.0209,0.0277,0.0376,0.0458,0.0546,0.0612,0.064,0.065,0.0655,0.06,0.0512,0.0435,0.0313,0.0216,0.0116,0.0027,0.0,-0.0001,-0.0011,-0.0017,-0.0023,-0.0021,-0.0035,-0.0035,-0.0035,-0.0035,0,0.0207,0.0265,0.0345,0.0429,0.0528,0.059,0.0639,0.0665,0.0694,0.0655,0.0643,0.0537,0.0484,0.0337,0.0244,0.0152,0.0119,0.0072,0.0067,0.0067,0.0107,0.0114,0.0133,0,0,0,0,0,0.0245,0.03,0.0383,0.0477,0.0565,0.061,0.0678,0.0706,0.0717,0.0689,0.0663,0.0581,0.043,0.036,0.027,0.0233,0.01,0.0121,0.0044,-0.0038,-0.0037,-0.0007,0,0,0,0,0,0,0.0275,0.0359,0.0386,0.048,0.0539,0.0631,0.0676,0.0686,0.0663,0.0654,0.0582,0.0546,0.0409,0.0484,0.0263,0.0235,0.0169,0.0057,0.0054,-0.0039,-0.0038,-0.0037,-0.0006,0,0,0,0,0]}]]